{"data":{"norad_id":43207,"intl_designator":"2018-018A","name":"BEIDOU-3 M4 (C22)","alt_names":[],"object_type":"PAYLOAD","status":"ACTIVE","operator":null,"country":"PRC","launch_date":"2018-02-12","launch_site_code":"XICLF","launch_vehicle":null,"mission":null,"orbit_class":"UNKNOWN","rcs_meters":null,"size_class":null,"mass_kg":null,"dimensions":null,"purposes":["nav"],"wikipedia_slug":null,"has_3d_model":false,"image_url":null,"decayed_at":null,"tle_current":{"epoch":"2026-05-24T00:55:07.428288Z","epoch_age_seconds":154154,"freshness":"FRESH","line1":"1 43207U 18018A   26144.03828042 -.00000065  00000+0  00000+0 0  9998","line2":"2 43207  56.6312  63.9440 0007967  11.9545 348.0589  1.86231141 56297","mean_motion":1.86231141,"eccentricity":0.0007967,"inclination_deg":56.6312,"raan_deg":63.944,"arg_perigee_deg":11.9545,"mean_anomaly_deg":348.0589,"bstar":0,"rev_number":5629,"period_min":773.23265715265,"perigee_km":21505.804629053,"apogee_km":21550.270327466,"semimajor_km":27906.17447826,"source":"CELESTRAK","updated_at":"2026-05-25T13:38:24.217588Z"}}}